Time,TemperatureF,DewpointF,PressureIn,WindDirection,WindDirectionDegrees,WindSpeedMPH,WindSpeedGustMPH,Humidity,HourlyPrecipIn,Conditions,Clouds,dailyrainin,SoftwareType,DateUTC
2013-08-12 00:04:00,64.5,63.0,30.00,North,8,0.0,0.0,95,0.01,,,0.00,weatherlink.com 1.10,2013-08-12 05:04:00,
2013-08-12 00:19:00,64.3,63.0,30.00,North,8,0.0,0.0,95,0.00,,,0.00,weatherlink.com 1.10,2013-08-12 05:19:00,
2013-08-12 00:34:00,64.1,63.0,30.00,North,8,0.0,0.0,95,0.00,,,0.00,weatherlink.com 1.10,2013-08-12 05:34:00,
2013-08-12 00:49:00,64.2,63.0,30.00,WSW,245,1.0,1.0,95,0.00,,,0.00,weatherlink.com 1.10,2013-08-12 05:49:00,
2013-08-12 01:04:00,64.6,63.0,30.00,WSW,252,0.0,1.0,95,0.00,,,0.00,weatherlink.com 1.10,2013-08-12 06:04:00,
2013-08-12 01:19:00,64.7,63.0,30.00,WSW,252,0.0,1.0,95,0.00,,,0.00,weatherlink.com 1.10,2013-08-12 06:19:00,
2013-08-12 01:34:00,64.8,64.0,29.99,South,184,0.0,1.0,96,0.00,,,0.00,weatherlink.com 1.10,2013-08-12 06:34:00,
2013-08-12 01:49:00,65.0,64.0,29.98,South,188,0.0,0.0,96,0.00,,,0.00,weatherlink.com 1.10,2013-08-12 06:49:00,
2013-08-12 02:04:00,64.7,63.0,29.99,WSW,245,1.0,1.0,95,0.00,,,0.00,weatherlink.com 1.10,2013-08-12 07:04:00,
2013-08-12 02:19:00,64.9,64.0,29.99,WSW,256,0.0,0.0,96,0.00,,,0.00,weatherlink.com 1.10,2013-08-12 07:19:00,
2013-08-12 02:34:00,65.0,64.0,29.99,WSW,246,2.0,2.0,96,0.00,,,0.00,weatherlink.com 1.10,2013-08-12 07:34:00,
2013-08-12 02:49:00,65.0,64.0,29.98,SW,222,0.0,0.0,96,0.01,,,0.01,weatherlink.com 1.10,2013-08-12 07:49:00,
2013-08-12 03:04:00,64.8,64.0,29.98,WSW,239,0.0,0.0,96,0.01,,,0.01,weatherlink.com 1.10,2013-08-12 08:04:00,
2013-08-12 03:19:00,64.8,64.0,29.99,WSW,240,0.0,0.0,96,0.01,,,0.01,weatherlink.com 1.10,2013-08-12 08:19:00,
2013-08-12 03:34:00,65.0,64.0,29.98,West,273,0.0,2.0,96,0.12,,,0.12,weatherlink.com 1.10,2013-08-12 08:34:00,
2013-08-12 03:49:00,64.9,64.0,29.98,West,280,0.0,0.0,96,0.11,,,0.12,weatherlink.com 1.10,2013-08-12 08:49:00,
2013-08-12 04:04:00,64.8,64.0,29.98,SW,221,0.0,0.0,96,0.11,,,0.12,weatherlink.com 1.10,2013-08-12 09:04:00,
2013-08-12 04:19:00,64.7,64.0,29.97,SW,221,0.0,0.0,96,0.11,,,0.12,weatherlink.com 1.10,2013-08-12 09:19:00,
2013-08-12 04:34:00,64.6,64.0,29.96,SW,221,0.0,0.0,96,0.00,,,0.12,weatherlink.com 1.10,2013-08-12 09:34:00,
2013-08-12 04:49:00,64.7,64.0,29.96,SW,221,0.0,0.0,96,0.01,,,0.13,weatherlink.com 1.10,2013-08-12 09:49:00,
2013-08-12 05:04:00,64.8,64.0,29.96,WSW,245,0.0,2.0,96,0.01,,,0.13,weatherlink.com 1.10,2013-08-12 10:04:00,
2013-08-12 05:19:00,64.7,64.0,29.95,WSW,246,0.0,0.0,96,0.05,,,0.17,weatherlink.com 1.10,2013-08-12 10:19:00,
2013-08-12 05:34:00,64.8,64.0,29.95,WSW,239,0.0,2.0,96,0.05,,,0.17,weatherlink.com 1.10,2013-08-12 10:34:00,
2013-08-12 05:49:00,64.7,64.0,29.95,WSW,249,0.0,1.0,96,0.04,,,0.17,weatherlink.com 1.10,2013-08-12 10:49:00,
2013-08-12 06:04:00,64.8,64.0,29.95,WNW,287,0.0,0.0,96,0.04,,,0.17,weatherlink.com 1.10,2013-08-12 11:04:00,
2013-08-12 06:19:00,64.8,64.0,29.95,WNW,283,0.0,0.0,96,0.00,,,0.17,weatherlink.com 1.10,2013-08-12 11:19:00,
2013-08-12 06:34:00,64.8,64.0,29.95,West,281,0.0,0.0,96,0.00,,,0.17,weatherlink.com 1.10,2013-08-12 11:34:00,
2013-08-12 06:49:00,64.8,64.0,29.95,West,281,0.0,0.0,96,0.00,,,0.17,weatherlink.com 1.10,2013-08-12 11:49:00,
2013-08-12 07:04:00,65.2,64.0,29.95,West,281,0.0,0.0,97,0.00,,,0.17,weatherlink.com 1.10,2013-08-12 12:04:00,
2013-08-12 07:19:00,65.6,65.0,29.95,West,281,0.0,0.0,96,0.01,,,0.18,weatherlink.com 1.10,2013-08-12 12:19:00,
2013-08-12 07:35:00,66.0,65.0,29.94,West,281,0.0,0.0,97,0.01,,,0.18,weatherlink.com 1.10,2013-08-12 12:35:00,
2013-08-12 07:50:00,66.6,66.0,29.93,WNW,283,0.0,0.0,97,0.01,,,0.18,weatherlink.com 1.10,2013-08-12 12:50:00,
2013-08-12 08:05:00,67.1,66.0,29.93,ENE,74,0.0,0.0,96,0.01,,,0.18,weatherlink.com 1.10,2013-08-12 13:05:00,
2013-08-12 08:20:00,67.0,66.0,29.93,East,86,0.0,0.0,96,0.00,,,0.18,weatherlink.com 1.10,2013-08-12 13:20:00,
2013-08-12 08:35:00,66.8,66.0,29.94,East,86,0.0,0.0,96,0.01,,,0.19,weatherlink.com 1.10,2013-08-12 13:35:00,
2013-08-12 08:50:00,67.3,66.0,29.93,East,82,0.0,0.0,96,0.01,,,0.19,weatherlink.com 1.10,2013-08-12 13:50:00,
2013-08-12 09:05:00,67.4,66.0,29.93,East,84,0.0,1.0,96,0.01,,,0.19,weatherlink.com 1.10,2013-08-12 14:05:00,
2013-08-12 09:20:00,67.5,66.0,29.93,East,84,0.0,1.0,95,0.01,,,0.19,weatherlink.com 1.10,2013-08-12 14:20:00,
2013-08-12 09:35:00,68.5,67.0,29.93,East,82,0.0,0.0,95,0.00,,,0.19,weatherlink.com 1.10,2013-08-12 14:35:00,
2013-08-12 10:05:00,70.2,67.0,29.93,SE,132,0.0,0.0,90,0.00,,,0.19,weatherlink.com 1.10,2013-08-12 15:05:00,
2013-08-12 10:20:00,70.3,67.0,29.93,NE,34,0.0,0.0,88,0.00,,,0.19,weatherlink.com 1.10,2013-08-12 15:20:00,
2013-08-12 10:35:00,71.2,68.0,29.92,ENE,61,0.0,0.0,88,0.00,,,0.19,weatherlink.com 1.10,2013-08-12 15:35:00,
2013-08-12 10:50:00,71.8,68.0,29.93,East,79,0.0,1.0,86,0.00,,,0.19,weatherlink.com 1.10,2013-08-12 15:50:00,
2013-08-12 11:05:00,72.1,67.0,29.92,North,3,0.0,2.0,85,0.00,,,0.19,weatherlink.com 1.10,2013-08-12 16:05:00,
2013-08-12 11:20:00,73.0,67.0,29.93,SW,235,0.0,1.0,82,0.00,,,0.19,weatherlink.com 1.10,2013-08-12 16:20:00,
2013-08-12 11:35:00,73.2,67.0,29.93,WSW,256,0.0,2.0,82,0.00,,,0.19,weatherlink.com 1.10,2013-08-12 16:35:00,
2013-08-12 11:50:00,74.5,68.0,29.93,WSW,250,4.0,4.0,80,0.00,,,0.19,weatherlink.com 1.10,2013-08-12 16:50:00,
2013-08-12 12:05:00,74.2,67.0,29.93,WSW,252,0.0,4.0,79,0.00,,,0.19,weatherlink.com 1.10,2013-08-12 17:05:00,
2013-08-12 12:20:00,76.4,68.0,29.92,WSW,252,3.0,3.0,76,0.00,,,0.19,weatherlink.com 1.10,2013-08-12 17:20:00,
2013-08-12 12:35:00,75.6,67.0,29.91,WSW,256,2.0,5.0,74,0.00,,,0.19,weatherlink.com 1.10,2013-08-12 17:35:00,
2013-08-12 12:50:00,76.2,68.0,29.91,WSW,238,4.0,6.0,75,0.00,,,0.19,weatherlink.com 1.10,2013-08-12 17:50:00,
2013-08-12 13:05:00,76.0,67.0,29.91,WNW,284,2.0,4.0,73,0.00,,,0.19,weatherlink.com 1.10,2013-08-12 18:05:00,
2013-08-12 13:20:00,75.7,67.0,29.90,West,262,0.0,2.0,74,0.00,,,0.19,weatherlink.com 1.10,2013-08-12 18:20:00,
2013-08-12 13:35:00,77.0,66.0,29.90,WSW,239,2.0,5.0,68,0.00,,,0.19,weatherlink.com 1.10,2013-08-12 18:35:00,
2013-08-12 13:50:00,76.7,66.0,29.89,WNW,289,0.0,7.0,69,0.00,,,0.19,weatherlink.com 1.10,2013-08-12 18:50:00,
2013-08-12 14:05:00,75.9,65.0,29.89,SW,235,0.0,3.0,68,0.00,,,0.19,weatherlink.com 1.10,2013-08-12 19:05:00,
2013-08-12 14:20:00,76.6,66.0,29.89,SSW,207,0.0,1.0,70,0.00,,,0.19,weatherlink.com 1.10,2013-08-12 19:20:00,
2013-08-12 14:35:00,78.2,65.0,29.89,NNW,344,0.0,2.0,64,0.00,,,0.19,weatherlink.com 1.10,2013-08-12 19:35:00,
2013-08-12 14:50:00,78.1,66.0,29.88,West,262,2.0,4.0,66,0.00,,,0.19,weatherlink.com 1.10,2013-08-12 19:50:00,
2013-08-12 15:06:00,78.5,63.0,29.88,West,266,1.0,5.0,60,0.00,,,0.19,weatherlink.com 1.10,2013-08-12 20:06:00,
2013-08-12 15:21:00,79.8,65.0,29.87,NNE,23,0.0,4.0,61,0.00,,,0.19,weatherlink.com 1.10,2013-08-12 20:21:00,
2013-08-12 15:36:00,78.7,64.0,29.87,West,269,2.0,6.0,61,0.00,,,0.19,weatherlink.com 1.10,2013-08-12 20:36:00,
2013-08-12 15:51:00,77.1,64.0,29.87,WSW,252,0.0,4.0,65,0.00,,,0.19,weatherlink.com 1.10,2013-08-12 20:51:00,
2013-08-12 16:06:00,79.5,64.0,29.86,North,356,2.0,5.0,60,0.00,,,0.19,weatherlink.com 1.10,2013-08-12 21:06:00,
2013-08-12 16:21:00,80.2,63.0,29.86,WSW,245,2.0,5.0,57,0.00,,,0.19,weatherlink.com 1.10,2013-08-12 21:21:00,
2013-08-12 16:36:00,80.4,63.0,29.86,WNW,294,4.0,6.0,55,0.00,,,0.19,weatherlink.com 1.10,2013-08-12 21:36:00,
2013-08-12 16:51:00,80.2,62.0,29.85,West,280,1.0,6.0,54,0.00,,,0.19,weatherlink.com 1.10,2013-08-12 21:51:00,
2013-08-12 17:06:00,80.3,63.0,29.85,NNE,14,2.0,6.0,56,0.00,,,0.19,weatherlink.com 1.10,2013-08-12 22:06:00,
2013-08-12 17:21:00,79.8,63.0,29.85,WSW,239,3.0,6.0,57,0.00,,,0.19,weatherlink.com 1.10,2013-08-12 22:21:00,
2013-08-12 17:36:00,79.8,63.0,29.85,WSW,248,5.0,6.0,56,0.00,,,0.19,weatherlink.com 1.10,2013-08-12 22:36:00,
2013-08-12 17:51:00,79.4,63.0,29.85,West,276,3.0,6.0,57,0.00,,,0.19,weatherlink.com 1.10,2013-08-12 22:51:00,
2013-08-12 18:06:00,79.3,63.0,29.85,West,259,2.0,7.0,57,0.00,,,0.19,weatherlink.com 1.10,2013-08-12 23:06:00,
2013-08-12 18:21:00,77.2,62.0,29.85,West,281,2.0,8.0,60,0.00,,,0.19,weatherlink.com 1.10,2013-08-12 23:21:00,
2013-08-12 18:36:00,75.6,63.0,29.85,West,260,4.0,7.0,64,0.00,,,0.19,weatherlink.com 1.10,2013-08-12 23:36:00,
2013-08-12 18:51:00,74.9,62.0,29.86,WNW,284,1.0,9.0,64,0.00,,,0.19,weatherlink.com 1.10,2013-08-12 23:51:00,
2013-08-12 19:06:00,74.6,62.0,29.86,WSW,242,4.0,9.0,64,0.00,,,0.19,weatherlink.com 1.10,2013-08-13 00:06:00,
2013-08-12 19:21:00,74.2,62.0,29.86,West,276,1.0,4.0,66,0.00,,,0.19,weatherlink.com 1.10,2013-08-13 00:21:00,
2013-08-12 19:36:00,72.9,62.0,29.87,North,9,0.0,5.0,68,0.00,,,0.19,weatherlink.com 1.10,2013-08-13 00:36:00,
2013-08-12 19:51:00,71.6,62.0,29.87,NE,45,0.0,0.0,71,0.00,,,0.19,weatherlink.com 1.10,2013-08-13 00:51:00,
2013-08-12 20:06:00,69.9,62.0,29.87,NE,44,0.0,0.0,75,0.00,,,0.19,weatherlink.com 1.10,2013-08-13 01:06:00,
2013-08-12 20:21:00,68.0,61.0,29.88,NE,44,0.0,0.0,79,0.00,,,0.19,weatherlink.com 1.10,2013-08-13 01:21:00,
2013-08-12 20:36:00,66.9,61.0,29.88,NE,44,0.0,0.0,81,0.00,,,0.19,weatherlink.com 1.10,2013-08-13 01:36:00,
2013-08-12 20:51:00,65.9,61.0,29.89,NE,44,0.0,0.0,83,0.00,,,0.19,weatherlink.com 1.10,2013-08-13 01:51:00,
2013-08-12 21:06:00,65.1,61.0,29.89,NNW,328,0.0,0.0,86,0.00,,,0.19,weatherlink.com 1.10,2013-08-13 02:06:00,
2013-08-12 21:21:00,64.3,60.0,29.89,NW,311,0.0,0.0,87,0.00,,,0.19,weatherlink.com 1.10,2013-08-13 02:21:00,
2013-08-12 21:36:00,63.0,60.0,29.90,NW,312,0.0,0.0,89,0.00,,,0.19,weatherlink.com 1.10,2013-08-13 02:36:00,
2013-08-12 21:51:00,65.9,61.0,29.91,North,1,2.0,7.0,84,0.00,,,0.19,weatherlink.com 1.10,2013-08-13 02:51:00,
2013-08-12 22:06:00,65.6,61.0,29.92,ESE,118,0.0,5.0,84,0.00,,,0.19,weatherlink.com 1.10,2013-08-13 03:06:00,
2013-08-12 22:21:00,64.8,60.0,29.93,ENE,68,2.0,6.0,83,0.00,,,0.19,weatherlink.com 1.10,2013-08-13 03:21:00,
2013-08-12 22:36:00,64.2,59.0,29.93,ESE,115,2.0,6.0,83,0.00,,,0.19,weatherlink.com 1.10,2013-08-13 03:36:00,
2013-08-12 23:06:00,62.8,59.0,29.94,SE,138,2.0,7.0,86,0.00,,,0.19,weatherlink.com 1.10,2013-08-13 04:06:00,
2013-08-12 23:21:00,62.5,59.0,29.94,East,96,0.0,6.0,88,0.00,,,0.19,weatherlink.com 1.10,2013-08-13 04:21:00,
2013-08-12 23:36:00,62.4,59.0,29.94,ESE,112,2.0,8.0,88,0.00,,,0.19,weatherlink.com 1.10,2013-08-13 04:36:00,
2013-08-12 23:51:00,61.9,58.0,29.95,ENE,75,2.0,7.0,87,0.00,,,0.19,weatherlink.com 1.10,2013-08-13 04:51:00,